Tracking 19638 objects as of 21-Apr-2019
HD Live streaming from Space Station
objects crossing your sky now

CZ-4 DEB

Track CZ-4 DEB now!
10-day predictions


NORAD ID: 28070
Int'l Code: 1999-057NA
Perigee: 683.8 km
Apogee: 784.1 km
Inclination: 98.5 °
Period: 99.3 minutes
Semi major axis: 7104 km
RCS: 0.0134 m2 (small)
Launch date: October 14, 1999
Source: People's Republic of China (PRC)
Launch site: Taiyaun Space Center, China (TSC)

Note: This is SATELLITE DEBRIS
aabbcc
Your satellite tracking list
Your tracking list is empty




NASA's NSSDC Master Catalog

Two Line Element Set (TLE):
1 28070U 99057NA  19111.39815758  .00000254  00000-0  76419-4 0  9998
2 28070  98.4981  87.0180 0070581   3.4205 356.7457 14.49658334876215
Source of the keplerian elements: AFSPC